Location: Melizzano
(41.1500°N, 14.5000°E)
Time: 07:12:15
(UTC+00:00)

SJ-6B - Pass Details

Date: 11 May 2021
Orbit: 509 x 580 km, 97.6° (Epoch: 15 June)

Event Time Altitude Azimuth Distance (km) Brightness Sun altitude
Exits shadow 18:55:23 - 169° (S) 2,514 5.8 -8.4°
Reaches altitude 10° 18:57:07 10° 171° (S) 1,786 5.0 -8.6°
Maximum altitude 19:00:59 79° 258° (WSW) 561 2.9 -9.2°
Drops below altitude 10° 19:04:58 10° 345° (NNW) 1,844 6.3 -9.9°
Sets 19:07:08 0° 347° (NNW) 2,755 7.2 -10.2°
